• în România
  • Lista ţărilor
  • Pe 7 zile
  • Temperatura apei
  • Hartă satelitară
  • Meteo pe hartă
  • Widget-uri
  • user-avatar
    Intrare

    Meteo pe oră la Townsville

    Astăzi, 16 Iulie, Luni

    Timp Temperatura Precipitaţii Vânt Presiune Umiditate
    00:00 +16°C° 0 mm 2 m/s 754 mmHg 79%
    01:00 +16°C° 0 mm 2 m/s 754 mmHg 81%
    02:00 +16°C° 0 mm 1 m/s 754 mmHg 83%
    03:00 +16°C° 0 mm 1 m/s 754 mmHg 86%
    04:00 +15°C° 0 mm 1 m/s 754 mmHg 88%
    05:00 +15°C° 0 mm 1 m/s 754 mmHg 88%
    06:00 +15°C° 0 mm 2 m/s 754 mmHg 88%
    07:00 +15°C° 0 mm 2 m/s 755 mmHg 88%
    08:00 +18°C° 0 mm 2 m/s 755 mmHg 76%
    09:00 +21°C° 0 mm 2 m/s 755 mmHg 64%
    10:00 +25°C° 0 mm 2 m/s 755 mmHg 52%
    11:00 +27°C° 0 mm 2 m/s 755 mmHg 46%
    12:00 +29°C° 0 mm 2 m/s 754 mmHg 40%
    13:00 +30°C° 0 mm 2 m/s 754 mmHg 34%
    14:00 +30°C° 0 mm 3 m/s 753 mmHg 32%
    15:00 +29°C° 0 mm 3 m/s 753 mmHg 31%
    16:00 +29°C° 0 mm 3 m/s 753 mmHg 29%
    17:00 +26°C° 0 mm 3 m/s 753 mmHg 37%
    18:00 +23°C° 0 mm 2 m/s 753 mmHg 45%
    19:00 +20°C° 0 mm 2 m/s 753 mmHg 54%
    20:00 +19°C° 0 mm 2 m/s 754 mmHg 54%
    21:00 +18°C° 0 mm 2 m/s 754 mmHg 54%
    22:00 +18°C° 0 mm 2 m/s 755 mmHg 55%
    23:00 +17°C° 0 mm 2 m/s 755 mmHg 49%

    Mâine, 17 Iulie, Marţi

    Timp Temperatura Precipitaţii Vânt Presiune Umiditate
    00:00 +17°C° 0 mm 2 m/s 755 mmHg 43%
    01:00 +16°C° 0 mm 3 m/s 755 mmHg 37%
    02:00 +16°C° 0 mm 3 m/s 755 mmHg 31%
    03:00 +14°C° 0 mm 3 m/s 755 mmHg 25%
    04:00 +14°C° 0 mm 3 m/s 755 mmHg 19%
    05:00 +14°C° 0 mm 3 m/s 755 mmHg 17%
    06:00 +13°C° 0 mm 3 m/s 755 mmHg 16%
    07:00 +13°C° 0 mm 3 m/s 756 mmHg 14%
    08:00 +17°C° 0 mm 3 m/s 756 mmHg 22%
    09:00 +21°C° 0 mm 3 m/s 756 mmHg 29%
    10:00 +25°C° 0 mm 3 m/s 757 mmHg 37%
    11:00 +26°C° 0 mm 3 m/s 756 mmHg 40%
    12:00 +27°C° 0 mm 3 m/s 756 mmHg 43%
    13:00 +29°C° 0 mm 4 m/s 755 mmHg 46%
    14:00 +28°C° 0 mm 4 m/s 755 mmHg 50%
    15:00 +27°C° 0 mm 4 m/s 755 mmHg 55%
    16:00 +27°C° 0 mm 5 m/s 754 mmHg 59%
    17:00 +25°C° 0 mm 4 m/s 755 mmHg 70%
    18:00 +22°C° 0 mm 4 m/s 755 mmHg 80%
    19:00 +20°C° 0 mm 4 m/s 755 mmHg 91%
    20:00 +19°C° 0 mm 4 m/s 756 mmHg 93%
    21:00 +19°C° 0 mm 4 m/s 756 mmHg 94%
    22:00 +19°C° 0 mm 4 m/s 757 mmHg 96%
    23:00 +19°C° 0 mm 4 m/s 757 mmHg 96%

    Poimâine, 18 Iulie, Miercuri

    Timp Temperatura Precipitaţii Vânt Presiune Umiditate
    00:00 +19°C° 0 mm 4 m/s 757 mmHg 97%
    01:00 +18°C° 0 mm 4 m/s 756 mmHg 97%
    02:00 +18°C° 0 mm 4 m/s 756 mmHg 97%
    03:00 +18°C° 0 mm 4 m/s 756 mmHg 97%
    04:00 +18°C° 0 mm 4 m/s 756 mmHg 97%
    05:00 +18°C° 0 mm 4 m/s 756 mmHg 97%
    06:00 +17°C° 0 mm 4 m/s 757 mmHg 96%
    07:00 +17°C° 0 mm 4 m/s 757 mmHg 96%
    08:00 +19°C° 0 mm 5 m/s 757 mmHg 85%
    09:00 +22°C° 0 mm 5 m/s 758 mmHg 74%
    10:00 +25°C° 0 mm 5 m/s 758 mmHg 63%
    11:00 +26°C° 0 mm 5 m/s 757 mmHg 58%
    12:00 +27°C° 0 mm 5 m/s 757 mmHg 53%
    13:00 +28°C° 0 mm 5 m/s 756 mmHg 48%
    14:00 +27°C° 0 mm 6 m/s 756 mmHg 50%
    15:00 +27°C° 0 mm 6 m/s 756 mmHg 52%
    16:00 +26°C° 0 mm 6 m/s 755 mmHg 54%
    17:00 +23°C° 0 mm 6 m/s 756 mmHg 62%
    18:00 +22°C° 0 mm 5 m/s 756 mmHg 70%
    19:00 +20°C° 0 mm 5 m/s 757 mmHg 78%
    20:00 +19°C° 0 mm 5 m/s 757 mmHg 82%
    21:00 +19°C° 0 mm 5 m/s 757 mmHg 86%
    22:00 +19°C° 0 mm 5 m/s 758 mmHg 90%
    23:00 +18°C° 0 mm 4 m/s 758 mmHg 91%

    19 Iulie, Joi

    Timp Temperatura Precipitaţii Vânt Presiune Umiditate
    00:00 +18°C° 0 mm 4 m/s 757 mmHg 93%
    01:00 +18°C° 0 mm 4 m/s 757 mmHg 94%
    02:00 +18°C° 0 mm 4 m/s 757 mmHg 94%
    03:00 +18°C° 0 mm 4 m/s 756 mmHg 94%
    04:00 +17°C° 0 mm 4 m/s 756 mmHg 94%
    05:00 +17°C° 0 mm 4 m/s 756 mmHg 94%
    06:00 +17°C° 0 mm 4 m/s 757 mmHg 95%
    07:00 +17°C° 0 mm 4 m/s 757 mmHg 95%
    08:00 +19°C° 0 mm 4 m/s 757 mmHg 85%
    09:00 +22°C° 0 mm 4 m/s 758 mmHg 75%
    10:00 +25°C° 0 mm 4 m/s 758 mmHg 65%
    11:00 +25°C° 0 mm 4 m/s 757 mmHg 63%
    12:00 +26°C° 0 mm 5 m/s 756 mmHg 62%
    13:00 +26°C° 0 mm 5 m/s 756 mmHg 60%
    14:00 +26°C° 0 mm 4 m/s 755 mmHg 61%
    15:00 +26°C° 0 mm 4 m/s 755 mmHg 61%
    16:00 +25°C° 0 mm 4 m/s 755 mmHg 62%
    17:00 +23°C° 0 mm 4 m/s 755 mmHg 70%
    18:00 +21°C° 0 mm 3 m/s 755 mmHg 78%
    19:00 +20°C° 0 mm 3 m/s 756 mmHg 86%
    20:00 +19°C° 0 mm 3 m/s 756 mmHg 88%
    21:00 +19°C° 0 mm 3 m/s 756 mmHg 91%
    22:00 +19°C° 0 mm 3 m/s 757 mmHg 93%
    23:00 +19°C° 0 mm 3 m/s 756 mmHg 94%

    20 Iulie, Vineri

    Timp Temperatura Precipitaţii Vânt Presiune Umiditate
    00:00 +19°C° 0 mm 2 m/s 756 mmHg 95%
    01:00 +19°C° 0 mm 2 m/s 756 mmHg 95%
    02:00 +19°C° 0 mm 2 m/s 755 mmHg 94%
    03:00 +19°C° 0 mm 2 m/s 755 mmHg 93%
    04:00 +20°C° 0 mm 2 m/s 755 mmHg 91%
    05:00 +20°C° 0 mm 2 m/s 755 mmHg 92%
    06:00 +20°C° 0 mm 2 m/s 756 mmHg 93%
    07:00 +20°C° 0 mm 2 m/s 756 mmHg 94%
    08:00 +21°C° 0,2 mm 1 m/s 756 mmHg 92%
    09:00 +22°C° 0,2 mm 1 m/s 756 mmHg 89%
    10:00 +23°C° 0,2 mm 1 m/s 756 mmHg 87%
    11:00 +25°C° 0,1 mm 1 m/s 756 mmHg 78%
    12:00 +26°C° 0,1 mm 1 m/s 755 mmHg 70%
    13:00 +28°C° 0,1 mm 1 m/s 754 mmHg 61%
    14:00 +28°C° 0,1 mm 1 m/s 754 mmHg 62%
    15:00 +27°C° 0,1 mm 2 m/s 754 mmHg 64%
    16:00 +27°C° 0,1 mm 2 m/s 754 mmHg 65%
    17:00 +25°C° 0,1 mm 2 m/s 754 mmHg 74%
    18:00 +23°C° 0,1 mm 2 m/s 755 mmHg 83%
    19:00 +22°C° 0,1 mm 1 m/s 755 mmHg 91%
    20:00 +21°C° 0 mm 1 m/s 756 mmHg 92%
    21:00 +21°C° 0 mm 1 m/s 756 mmHg 92%
    22:00 +20°C° 0 mm 1 m/s 757 mmHg 93%
    23:00 +19°C° 0 mm 2 m/s 757 mmHg 87%

    21 Iulie, Sâmbătă

    Timp Temperatura Precipitaţii Vânt Presiune Umiditate
    00:00 +18°C° 0 mm 2 m/s 757 mmHg 80%
    01:00 +17°C° 0 mm 3 m/s 756 mmHg 74%
    02:00 +15°C° 0 mm 4 m/s 756 mmHg 66%
    03:00 +14°C° 0 mm 5 m/s 756 mmHg 57%
    04:00 +13°C° 0 mm 5 m/s 756 mmHg 49%
    05:00 +13°C° 0 mm 5 m/s 757 mmHg 50%
    06:00 +13°C° 0 mm 5 m/s 757 mmHg 51%
    07:00 +12°C° 0 mm 5 m/s 758 mmHg 52%
    08:00 +15°C° 0 mm 5 m/s 758 mmHg 45%
    09:00 +19°C° 0 mm 5 m/s 758 mmHg 39%
    10:00 +22°C° 0 mm 5 m/s 758 mmHg 32%
    11:00 +25°C° 0 mm 4 m/s 758 mmHg 29%
    12:00 +26°C° 0 mm 4 m/s 757 mmHg 26%
    13:00 +28°C° 0 mm 4 m/s 756 mmHg 22%
    14:00 +28°C° 0 mm 4 m/s 756 mmHg 24%
    15:00 +28°C° 0 mm 4 m/s 756 mmHg 27%
    16:00 +28°C° 0 mm 5 m/s 755 mmHg 29%
    17:00 +25°C° 0 mm 5 m/s 756 mmHg 45%
    18:00 +21°C° 0 mm 4 m/s 756 mmHg 62%
    19:00 +18°C° 0 mm 4 m/s 757 mmHg 78%
    20:00 +18°C° 0 mm 4 m/s 757 mmHg 84%
    21:00 +17°C° 0 mm 4 m/s 758 mmHg 90%
    22:00 +17°C° 0 mm 4 m/s 758 mmHg 96%
    23:00 +17°C° 0 mm 4 m/s 758 mmHg 95%
    Arată mai mult